Regional Weather Roundup
Issued by NWS Upton, NY

Current Version | Previous Version | Graphics & Text | Print | Product List | Glossary Off
Versions: 1 2 3 4 5 6 7 8 9 10 11 12 13 14 15 16 17 18 19 20 21 22 23 24 25 26 27 28 29 30 31 32 33 34 35 36 37 38 39 40 41 42 43 44 45 46 47 48 49 50

801
ASUS41 KOKX 080304
RWROKX

REGIONAL WEATHER ROUNDUP
NATIONAL WEATHER SERVICE NEW YORK NY
1000 PM EST SUN FEB 07 2016

NOTE: "FAIR" INDICATES FEW OR NO CLOUDS BELOW 12,000 FEET WITH NO
SIGNIFICANT WEATHER AND/OR OBSTRUCTIONS TO VISIBILITY.

NYZ071-072-176-178-NJZ106-104-080400-
NEW YORK CITY METRO AREA


CITY           SKY/WX    TMP DP  RH WIND       PRES   REMARKS
CENTRAL PARK   CLOUDY    39  27  62 NE5       29.98F
LAGUARDIA APRT CLOUDY    40  31  70 NE10      29.96F WCI  33
KENNEDY INTL   CLOUDY    39  25  57 NE10      29.96F WCI  32
NEWARK/LIBERTY CLOUDY    38  27  64 N8        29.96F WCI  32
BRNX BOT. GARD   N/A     37  25  60 N2        29.95F
TETERBORO      CLOUDY    39  21  48 NE3       29.96F
$$

NYZ177-179-078>081-080400-
LONG ISLAND NEW YORK

CITY           SKY/WX    TMP DP  RH WIND       PRES   REMARKS
FARMINGDALE    MOCLDY    39  29  67 NE10      29.94F WCI  32
ISLIP          CLOUDY    38  30  73 NE10      29.93F WCI  31
SHIRLEY        CLOUDY    36  31  82 N3        29.95F
RIVERHEAD        N/A     37  30  75 E10       29.92F WCI  30
WESTHAMPTON    CLOUDY    39  31  72 NE13      29.96F WCI  31
EAST HAMPTON   FAIR      38  31  74 NE8       29.96F WCI  32
MONTAUK POINT    N/A     40  32  73 NE14G23   29.98F WCI  32
$$

NYZ052-065-067-080400-
HUDSON VALLEY

CITY           SKY/WX    TMP DP  RH WIND       PRES   REMARKS
WHITE PLAINS   MOCLDY    37  20  50 NE7       29.95F WCI  32
NEWBURGH       PTCLDY    36  21  55 VRB6      29.99S WCI  31
MONTGOMERY     PTCLDY    28  22  78 CALM      29.97F
POUGHKEEPSIE   CLOUDY    31  22  69 CALM      29.98F
ALBANY         CLOUDY    32  23  69 N7        30.04S WCI  26
$$

NJZ001-105-106-008-010-013-015-019>022-104-080400-
NEW JERSEY

CITY           SKY/WX    TMP DP  RH WIND       PRES   REMARKS
NEWARK/LIBERTY CLOUDY    38  27  64 N8        29.96F WCI  32
TETERBORO      CLOUDY    39  21  48 NE3       29.96F
CALDWELL       CLOUDY    37  21  52 CALM      29.96F
MORRISTOWN     CLOUDY    37  23  56 NE8       29.96F WCI  31
SOMERVILLE     MOCLDY    37  23  56 N6        29.93F WCI  32
SUSSEX         PTCLDY    30  22  72 CALM      29.96F
ANDOVER          N/A     32  24  72 CALM      29.94F
TRENTON        CLOUDY    36  26  67 N6        29.92F WCI  31
MILLVILLE      CLOUDY    39  30  70 N13       29.87F WCI  31
ATLANTIC CITY  CLOUDY    39  32  76 NE13      29.86F WCI  31
WRIGHTSTOWN    CLOUDY    36  36  99 N10       29.88F WCI  29
TOMS RIVER     CLOUDY    37  30  75 NE10      29.90F WCI  30
BELMAR         CLOUDY    39  27  60 NE12      29.92S WCI  32
$$

PAZ047>061-062-071-080400-
EASTERN PENNSYLVANIA

CITY           SKY/WX    TMP DP  RH WIND       PRES   REMARKS
PHILADELPHIA   CLOUDY    40  23  50 NE13      29.92F WCI  32
ALLENTOWN      PTCLDY    33  23  66 CALM      29.93F
SCRANTON       CLOUDY    34  21  59 NE8       29.93F WCI  27
$$

CTZ002-004>006-009-010-012-RIZ004-006-007-MAZ004-011-015-080400-
SOUTHERN NEW ENGLAND
 IN CT

CITY           SKY/WX    TMP DP  RH WIND       PRES   REMARKS
BRADLEY INTL   MOCLDY    32  23  69 N6        30.03S WCI  26
HARTFORD       CLOUDY    36  24  62 NE6       30.03F WCI  31
DANBURY        CLOUDY    33  21  61 CALM      29.98F
WTRBRY/OXFORD  CLOUDY    34  19  55 E8        29.98F WCI  27
BRIDGEPORT     CLOUDY    39  27  62 NE13      29.98F WCI  31
MERIDEN        CLOUDY    38  24  57 VRB5      30.01F WCI  34
NEW HAVEN      CLOUDY    38  25  59 NE10      29.98F WCI  31
CHESTER        FAIR      36  27  69 NE8       29.99F WCI  29
GROTON         MOCLDY    36  30  79 NE14      29.98F WCI  27
WILLIMANTIC    MOCLDY    33  24  69 NE5       30.03S WCI  29

 IN RI

CITY           SKY/WX    TMP DP  RH WIND       PRES   REMARKS
PROVIDENCE     CLOUDY    35  29  78 NE10      30.03F WCI  27
BLOCK ISLAND   CLOUDY    39  34  81 NE17G24   29.97F WCI  30
WESTERLY       MOCLDY    35  27  72 NE7       30.00F WCI  29

 IN MA

CITY           SKY/WX    TMP DP  RH WIND       PRES   REMARKS
BOSTON         MOCLDY    39  29  67 E20       30.07F WCI  29
WORCESTER      CLOUDY    31  24  75 NE7       30.02F WCI  24
WESTFIELD      CLOUDY    32  22  66 N7        30.04S WCI  26
PROVINCETOWN   PTCLDY    39  30  70 E18       30.05F WCI  30
NANTUCKET      CLOUDY    42  33  70 NE16G24   29.99F
$$

ANZ330-335-338-340-345-350-353-355-080400-
COASTAL MARINE OBSERVATIONS


STATION/POSITION TIME  SKY/WX   TEMP    WIND        PRES    VSBY  WAVE
                                AIR SEA DIR/SP/G                  HT/PER
                 (UTC)          (F)     (DEG/KT/KT) (MB)    (MI)  (FT/S)
NY HARB ENTRANCE 0150            41 44   50/ 16/ 19 1013.6          3/11
4S FIRE IS       NOT AVBL
20S FIRE ISLAND  0150            44 43   60/ 19/ 23 1013.2          4/ 4
GREAT SOUTH BAY  NOT AVBL
23SW MTP         0250            42 45   60/ 21/ 27 1012.9          4/ 5
HUDSON CANYON    0150            46 50              1010.3          6/ 6
KINGS POINT      0200            38 39              1014.5
EXECUTION ROCKS  NOT AVBL
CENTRAL LI SOUND 0200            40      80/ 19/ 23   N/A           1
EASTERN LI SOUND 0200            40 42   60/ 17/ 21   N/A
ROBBINS REEF     0200            41                 1013.6
$$


>>>>>>>>>>>>>>>>>>>>>>>>>>>> KEY <<<<<<<<<<<<<<<<<<<<<<<<<<<
>                                                          <
>     SKY/WX - SKY CONDITION/PRESENT WEATHER               <
>     TMP    - TEMPERATURE IN FAHRENHEIT                   <
>     DP     - DEWPOINT IN FAHRENHEIT                      <
>     RH     - RELATIVE HUMIDITY IN PERCENT                <
>     WIND   - DIRECTION AND SPEED IN MPH                  <
>     PRES   - MEAN SEA LEVEL PRESSURE IN INCHES OF HG     <
>     WCI    - WIND CHILL INDEX                            <
>     VSB    - VISIBILITY IN MILES                         <
>     HX     - HEAT INDEX                                  <
>     TC     - TEMPERATURE IN CELSIUS                      <
>     VRB    - VARIABLE WIND DIRECTION                     <
>                                                          <
>>>>>>>>>>>>>>>>>>>>>>>>>>>> KEY <<<<<<<<<<<<<<<<<<<<<<<<<<<






USA.gov is the U.S. government's official web portal to all federal, state and local government web resources and services.